Simultaneous Nadir Overpasses (SNOs) Predictions

Prediction of SNOs between METOP-B and TERRA Satellite Orbit:

Table of predicted SNOs for the next 14.0 days since TLE Epoch: 8/19/2023
Index Date (METOP-B) Time (METOP-B) Lat,Lon (METOP-B) SZA (METOP-B ) Date (TERRA) Time (TERRA) Lat,Lon (TERRA) SZA (TERRA ) Distance(km) Time Diff (sec)
1 08/20/2023 20:38:38 80.74, -98.84 69.68 08/20/2023 20:38:39 80.75, -98.73 69.69 2.03 1
2 08/23/2023 11:59:35 -80.74,-149.15 109.44 08/23/2023 12:00:03 -80.74,-149.19 109.44 0.70 28
3 08/23/2023 12:50:12 80.81, 19.42 70.74 08/23/2023 12:49:23 80.81, 19.24 70.70 3.25 49
4 08/26/2023 03:20:32 80.70, 159.98 71.39 08/26/2023 03:21:27 80.70, 159.95 71.40 0.75 55
5 08/26/2023 04:11:09 -80.79, -31.29 108.41 08/26/2023 04:10:46 -80.79, -31.40 108.43 2.00 23
6 08/28/2023 19:32:08 80.72, -82.58 72.39 08/28/2023 19:32:11 80.72, -82.45 72.40 2.33 3
7 08/28/2023 20:22:12 -81.28, 98.40 105.85 08/28/2023 20:20:58 -81.57, 97.96 105.73 32.89 74
8 08/31/2023 10:53:04 -80.73,-132.66 106.64 08/31/2023 10:53:33 -80.73,-132.75 106.64 1.62 29



Historial Predications of SNOs between METOP-B and TERRA
